GFSNGP_850_rhum_138.txt.gz
RH
87 85 80 78 79 89 92 77 86 54 67 51 48 51 41 37 39 43 44 38 32 32 38 37 45 46 46 44 41 38 32 27 28 27 27 26 30 39 36 92 99 100 100 99
97 82 86 91 81 79 77 85 81 75 78 51 47 47 46 45 45 39 33 29 30 36 35 38 41 42 42 42 42 40 35 30 22 22 23 20 20 23 29 30 37 50 53 48
87 78 80 66 59 70 71 69 67 82 57 39 42 39 43 40 37 35 34 31 31 32 34 35 40 43 44 44 46 43 41 36 29 20 18 17 15 17 20 23 26 26 23 20
95 80 61 32 40 46 62 58 56 55 46 41 43 43 43 37 36 30 30 32 34 35 37 37 37 42 45 46 46 45 43 42 36 28 21 18 16 17 18 20 22 23 23 23
96 99 72 30 43 54 55 41 53 56 50 46 47 44 28 19 26 29 28 31 37 41 39 37 37 40 42 45 47 48 46 45 44 37 29 22 16 16 18 18 19 19 19 20
89 97 82 27 34 45 42 28 22 48 49 50 43 44 40 19 23 27 31 33 31 27 26 31 39 43 44 44 46 48 47 48 47 44 38 30 21 15 16 17 18 18 18 18
77 83 79 58 50 41 30 14 21 34 36 36 50 30 22 24 26 28 30 28 28 31 29 28 36 37 41 44 46 44 49 53 53 49 46 41 32 22 15 17 18 19 19 21
75 89 90 49 50 50 30 21 29 29 27 28 29 30 31 31 30 29 30 30 31 33 30 28 31 33 35 36 31 33 48 56 58 56 51 49 44 36 25 17 18 20 20 20
77 68 46 44 38 31 33 34 30 32 29 31 35 32 29 28 28 27 28 33 37 36 31 30 34 34 34 31 39 43 45 46 58 61 59 55 52 49 41 28 20 18 19 20
67 50 47 46 35 34 32 31 27 29 29 32 30 32 32 28 29 30 29 28 36 36 36 31 25 30 38 39 41 42 40 43 54 62 62 62 58 56 54 46 34 24 21 21
67 50 39 37 34 32 35 33 31 29 33 37 37 37 37 31 32 31 29 32 33 34 29 18 25 29 30 35 42 41 41 45 56 63 66 65 65 62 60 58 53 39 27 23
49 36 41 39 38 39 42 41 43 43 44 43 42 42 43 39 36 32 31 33 36 36 25 27 29 30 30 32 34 37 47 50 56 63 68 69 69 70 68 66 64 57 41 30
44 42 44 43 43 44 49 49 49 47 46 46 46 51 48 42 37 34 35 36 38 28 29 32 33 34 36 36 35 37 37 41 51 63 70 74 74 74 74 73 72 69 60 44
52 52 55 53 53 54 56 56 58 58 57 57 57 55 54 52 50 44 38 39 36 30 31 32 33 34 38 39 41 44 45 43 46 52 62 74 79 79 79 80 79 76 72 61
58 58 60 60 59 52 48 51 55 60 56 56 55 60 58 54 50 49 44 42 35 34 38 36 32 30 32 33 36 40 45 50 54 50 55 68 81 87 86 87 86 84 82 76
56 57 58 60 48 45 43 44 55 46 44 50 58 57 59 58 53 51 49 41 36 38 39 34 32 34 36 38 40 43 46 50 56 61 67 66 69 83 90 90 88 88 87 84
67 65 52 48 46 42 43 53 58 60 56 49 56 60 57 54 52 49 44 40 41 39 35 34 31 35 36 43 44 48 52 55 62 64 67 76 82 84 88 92 92 91 89 86
56 52 50 47 44 57 52 54 57 59 54 55 59 57 53 53 51 47 43 41 37 37 35 33 32 34 37 42 45 49 58 61 65 70 74 81 89 93 96 98 96 94 90 89
54 45 47 55 58 58 57 56 53 56 58 64 62 57 55 54 48 45 41 37 36 33 33 33 34 35 40 44 42 55 64 69 72 76 81 87 92 97 98 97 96 95 95 96
69 79 59 45 60 61 59 55 47 39 40 51 56 59 53 50 45 38 36 34 49 78 84 87 91 73 44 41 48 60 68 73 78 86 95 99 97 98 97 98 98 99 99 98
67 46 33 33 32 58 63 61 52 48 42 45 46 47 46 42 38 36 42 69 76 77 83 90 98 92 66 50 62 69 74 80 87 99 100 98 98 98 99 99 100 100 98 98
90 77 58 32 32 28 51 63 62 56 52 48 43 42 43 42 46 50 61 66 70 77 84 94 98 97 84 62 64 76 82 87 92 100 100 99 99 97 98 99 99 99 99 98
47 51 58 43 48 46 33 30 50 62 65 63 58 50 47 50 53 55 56 61 69 76 90 98 99 100 98 82 60 70 83 88 92 97 99 100 99 97 97 98 98 97 98 98
42 53 61 50 49 51 40 32 35 34 37 43 51 62 60 49 50 56 59 60 76 77 83 90 99 100 94 88 64 78 87 86 85 89 92 92 95 97 98 98 95 86 69 49
46 44 50 47 55 49 42 38 46 49 49 41 38 42 52 57 62 56 52 56 62 81 76 81 89 100 95 93 72 79 88 89 90 93 95 96 98 99 91 68 44 46 66 78
53 50 46 48 52 46 44 53 62 59 55 58 54 53 50 56 63 64 64 67 62 62 66 67 82 88 98 100 82 76 90 92 91 95 98 99 96 65 46 68 84 85 80 64
51 42 43 45 35 37 45 53 60 59 63 67 66 63 68 65 66 69 69 65 66 70 66 63 74 87 100 100 96 85 93 96 94 97 98 98 56 66 86 87 85 78 59 43

GFSNGP_850_rhum_144.txt.gz
RH
60 54 53 53 47 56 77 63 51 26 30 27 25 27 27 31 34 36 34 34 35 38 36 28 28 32 37 37 38 43 42 40 39 36 28 18 16 14 13 17 21 63 84 83
73 52 57 67 54 53 50 52 51 47 43 30 29 29 32 31 31 33 32 28 23 24 27 25 30 35 31 33 40 42 43 41 41 39 36 26 16 14 12 13 14 17 19 21
55 56 56 48 34 42 46 43 45 55 38 27 27 29 31 34 34 33 26 20 19 19 20 26 28 30 32 37 38 43 44 44 42 42 40 37 27 17 14 13 14 15 17 20
72 60 59 29 32 34 40 40 40 39 36 32 32 35 41 37 36 30 25 25 27 29 28 26 28 26 25 24 35 40 46 47 46 44 42 42 38 28 17 12 12 14 15 15
65 71 43 28 42 42 44 26 30 37 36 34 36 45 31 24 21 26 28 30 31 30 30 35 29 26 28 28 28 42 45 45 46 47 48 46 44 40 28 18 12 14 16 15
76 81 54 27 32 44 39 23 19 36 34 35 43 33 24 26 26 27 30 36 36 29 30 30 31 32 32 32 28 31 44 44 47 49 51 51 49 46 42 31 20 14 15 17
70 72 56 38 37 46 40 16 25 30 34 38 38 32 29 31 31 31 32 35 37 40 31 28 31 33 34 35 32 28 30 34 44 51 52 54 55 53 49 44 35 23 16 17
70 77 77 46 52 44 25 23 24 28 30 36 38 42 42 40 38 33 32 34 42 43 39 30 30 31 33 36 32 33 36 35 33 36 42 51 58 59 56 51 47 40 28 19
54 55 41 46 39 36 36 41 36 37 36 44 45 44 42 44 46 47 47 49 44 41 42 38 34 30 33 34 35 34 24 26 38 41 40 40 47 62 64 60 54 50 44 33
56 40 41 35 36 43 39 41 42 43 46 44 46 47 49 52 53 52 52 52 48 45 46 44 36 32 35 36 35 26 22 25 36 46 46 48 53 57 65 66 63 58 53 49
51 44 42 42 41 42 43 46 49 50 52 54 55 57 58 58 56 54 55 54 55 56 54 44 37 38 38 36 30 28 29 31 31 32 39 50 52 54 61 64 67 65 62 58
53 39 40 42 46 50 53 55 55 57 58 61 63 64 62 58 57 56 55 58 59 58 56 49 42 41 38 31 32 36 34 34 35 35 35 38 45 54 58 67 72 72 72 69
54 53 55 57 56 56 58 58 60 65 67 66 46 51 59 58 51 55 55 56 56 59 59 56 51 43 37 35 37 40 40 38 40 45 46 44 43 45 51 61 74 77 78 76
57 59 60 59 59 59 62 66 65 59 47 54 60 54 63 69 62 57 56 60 63 62 59 54 51 42 41 41 40 38 34 33 35 37 43 48 51 51 51 59 65 70 78 79
59 59 64 69 72 70 70 58 55 57 56 54 54 60 62 66 61 57 61 62 62 62 57 53 48 48 47 42 38 39 40 40 42 44 47 52 54 57 62 61 59 66 79 85
66 65 71 69 62 60 66 68 72 68 59 52 46 45 58 67 66 64 57 56 59 58 52 49 47 44 42 41 41 40 40 42 41 46 51 57 60 62 65 70 75 75 78 85
71 71 69 63 53 52 59 59 69 70 66 57 52 51 54 60 64 61 56 51 52 51 49 45 42 40 43 55 71 70 62 49 47 48 54 63 70 70 74 79 83 88 86 87
89 87 81 75 70 56 50 56 48 52 56 64 55 52 53 60 63 60 55 49 48 47 40 39 64 94 92 90 86 86 89 69 55 63 70 73 78 81 84 87 91 96 97 99
80 88 91 89 80 64 56 49 47 34 33 44 63 59 54 51 52 54 58 55 52 47 43 70 89 74 75 71 76 88 77 60 68 73 79 85 89 93 94 98 100 100 100 100
61 56 53 51 51 56 52 48 46 38 30 36 37 50 59 57 73 58 50 45 46 44 76 82 79 85 89 81 79 85 81 72 77 80 86 91 96 99 97 96 100 100 100 100
52 57 68 72 60 40 34 38 44 41 27 33 39 43 42 45 58 60 60 54 38 48 83 88 92 86 91 87 84 90 96 88 86 74 79 87 93 96 98 97 100 100 100 99
45 49 41 46 75 70 47 43 30 31 38 37 37 43 50 54 51 45 51 61 51 46 71 82 80 80 84 88 88 90 93 95 81 67 76 87 88 97 99 99 97 97 97 98
49 54 58 50 46 68 56 44 41 39 39 35 32 36 51 62 66 71 57 37 50 59 61 59 57 61 75 85 90 92 89 86 93 75 83 89 91 94 95 94 95 96 96 95
47 64 64 50 46 58 60 42 40 41 36 35 34 40 50 55 59 59 61 68 67 64 60 61 64 62 61 69 80 85 96 94 94 94 82 89 86 89 90 92 95 96 94 92
56 57 57 56 52 54 57 50 42 32 35 35 38 39 39 46 54 56 61 58 60 65 68 67 69 71 73 71 66 68 74 99 91 99 88 89 87 91 98 96 95 97 95 81
48 52 50 51 55 52 53 54 48 35 40 44 43 44 43 46 49 51 51 53 54 54 65 70 71 74 76 77 74 75 72 86 97 96 100 91 91 95 98 98 97 90 48 53
60 60 64 65 50 51 50 49 46 34 47 44 40 38 38 37 33 29 38 43 40 36 38 62 76 78 81 83 80 77 76 78 81 90 100 98 95 96 97 98 94 52 69 84

GFSNGP_850_rhum_147.txt.gz
RH
50 42 38 40 39 35 59 56 41 26 22 17 15 16 16 19 23 25 24 25 25 28 29 31 32 32 34 43 38 40 40 43 42 41 38 36 28 16 13 11 11 14 35 72
56 32 36 47 41 38 37 35 42 43 41 28 24 24 24 24 24 26 26 26 25 28 30 31 34 35 37 45 34 34 37 42 44 44 42 38 37 29 16 12 11 12 13 15
54 43 47 43 29 29 35 35 34 41 32 23 25 26 26 29 32 29 27 26 28 31 32 36 36 30 37 42 42 39 40 42 46 47 46 42 41 39 30 18 14 12 14 15
64 50 56 29 24 28 28 25 27 30 29 27 28 28 32 32 31 27 26 26 29 32 36 35 38 32 32 27 26 28 30 33 44 50 49 48 46 42 41 34 21 13 14 16
64 49 38 29 36 35 35 27 19 24 25 27 28 35 31 24 26 27 27 29 33 37 40 40 38 29 31 31 32 30 30 29 36 51 57 55 51 47 45 43 37 24 14 14
56 72 56 30 35 36 35 31 19 26 26 26 33 42 37 38 40 39 31 34 37 37 38 34 41 43 37 29 31 32 31 32 32 42 51 55 56 54 52 49 46 39 27 16
66 66 50 38 39 42 44 21 25 26 28 30 32 33 37 42 41 41 41 42 42 40 40 44 44 44 43 34 32 30 33 34 31 31 34 38 52 57 58 57 53 48 42 32
66 71 78 37 46 43 33 28 30 34 38 42 41 41 44 46 46 46 46 47 48 48 48 46 47 45 43 40 35 34 38 37 34 34 32 32 36 46 57 61 61 56 51 46
49 50 34 40 35 37 38 39 40 41 42 45 47 48 50 51 51 51 52 53 53 52 51 50 50 51 49 46 43 43 43 37 36 26 27 36 40 43 46 51 63 64 60 55
44 33 33 34 37 40 40 41 47 50 51 52 53 54 55 57 56 57 57 56 55 55 55 54 55 57 55 45 42 43 40 36 30 29 32 38 46 48 50 54 58 63 66 63
48 41 38 37 38 41 46 50 51 53 55 56 57 58 61 62 62 58 55 55 57 59 61 57 51 57 57 47 45 44 36 32 34 36 36 38 39 42 45 50 56 62 64 68
56 40 41 44 48 51 54 53 53 56 58 60 65 65 60 55 54 58 59 61 60 54 62 60 62 58 58 56 49 39 37 39 42 47 49 48 48 44 41 42 51 61 65 74
54 53 54 55 56 54 53 54 58 62 68 63 57 57 61 64 62 62 61 63 64 65 63 62 62 61 55 55 45 44 46 46 46 46 45 45 48 51 50 46 46 48 60 73
54 54 55 51 52 58 64 68 67 64 61 61 62 61 60 61 63 68 68 68 69 68 62 62 63 57 51 47 43 42 44 45 47 48 50 52 52 50 52 53 57 54 54 64
59 58 65 68 68 67 62 66 69 68 69 70 67 65 61 57 63 66 68 65 61 57 61 60 56 53 50 47 44 41 40 42 45 46 49 52 54 53 57 60 63 64 68 66
70 69 68 64 62 58 59 62 66 64 66 66 69 64 55 53 56 63 67 65 58 56 55 52 52 50 45 46 59 72 77 78 72 64 57 53 57 64 71 71 76 77 80 82
75 76 83 80 75 73 69 63 61 60 55 52 44 46 60 59 55 56 54 60 56 53 52 46 44 62 86 80 74 71 66 71 74 81 76 61 67 73 77 82 87 86 86 92
71 75 91 94 94 88 82 74 69 63 63 47 36 33 33 41 63 67 69 52 53 55 58 55 59 76 78 81 72 75 80 83 76 70 73 77 82 87 89 92 96 98 99 99
69 58 56 70 71 71 72 70 54 43 39 51 44 37 36 34 40 47 62 72 80 62 47 46 88 99 97 99 84 78 80 87 91 73 77 85 88 91 93 93 96 97 97 100
63 62 55 56 52 54 57 55 70 48 37 38 37 36 39 37 36 32 46 53 60 80 81 80 83 99 100 99 95 87 83 83 89 78 76 74 80 92 94 94 94 94 97 99
65 62 52 42 46 51 54 56 62 61 40 35 39 38 37 30 31 37 40 46 35 48 59 50 46 75 95 100 100 96 92 88 83 84 92 71 72 78 87 97 97 97 98 100
43 61 53 37 50 53 47 59 54 41 50 43 36 34 32 29 33 34 39 48 44 56 49 55 56 54 61 68 71 89 95 99 96 90 85 88 77 83 87 88 94 95 94 94
63 65 64 58 51 52 48 38 42 42 42 47 44 34 31 33 36 47 39 31 48 55 57 55 57 54 57 66 65 62 62 70 83 94 92 90 91 86 87 87 92 91 93 95
61 64 63 48 44 51 53 29 36 42 48 45 42 37 37 34 36 40 48 57 54 53 56 53 52 55 62 66 66 68 71 70 66 73 88 92 93 91 88 87 93 95 96 96
48 47 50 54 64 61 51 45 60 54 54 49 42 37 35 45 50 42 41 40 41 45 46 46 46 50 64 69 72 76 77 78 76 77 77 79 91 98 91 89 93 96 97 97
59 64 68 68 71 72 76 75 69 58 58 62 54 41 38 45 46 43 39 37 32 27 31 37 38 35 39 64 76 79 82 84 83 79 80 93 100 97 98 94 96 97 96 95
55 66 74 73 69 76 73 72 75 60 59 66 65 43 44 42 45 37 29 28 28 28 27 25 26 34 37 41 67 78 80 83 86 84 82 96 100 98 99 98 99 98 98 82

GFSNGP_850_rhum_150.txt.gz
RH
61 58 52 50 49 47 66 61 67 38 39 29 35 35 27 25 24 24 25 26 26 26 27 30 31 30 26 29 36 42 41 38 38 44 46 48 45 40 36 27 14 12 12 18
68 54 54 56 49 47 44 41 48 53 54 36 33 27 27 30 32 31 29 28 26 27 28 30 29 28 27 31 37 41 37 33 33 39 48 53 51 46 41 37 30 15 11 12
78 49 58 67 46 45 46 43 41 49 37 30 30 31 30 30 32 33 28 26 26 27 28 32 36 35 33 29 28 31 30 28 29 29 31 41 51 54 48 42 39 32 19 12
88 68 79 44 30 27 35 37 35 36 35 32 31 28 28 32 31 28 31 32 30 29 32 38 38 36 34 33 40 39 28 30 30 30 33 43 54 56 54 49 44 42 36 24
83 72 57 39 38 37 38 35 26 25 26 25 28 30 33 35 36 37 39 42 38 33 39 40 40 40 38 42 45 45 42 33 30 34 34 33 46 52 55 56 52 48 44 39
68 84 80 34 39 34 36 41 25 29 34 35 34 53 45 36 38 43 44 43 44 43 44 44 45 45 46 46 44 45 44 41 37 38 38 33 34 46 54 59 56 55 51 47
86 85 71 41 40 39 52 35 27 32 38 42 49 44 44 46 46 47 48 49 49 50 50 49 49 50 50 45 46 46 45 45 46 42 41 37 36 39 43 53 60 60 59 55
77 81 89 43 46 47 42 38 39 39 41 44 48 50 51 51 52 53 54 55 55 55 55 53 52 52 52 50 47 53 53 50 49 48 45 40 40 37 43 50 54 60 66 63
66 68 43 40 37 36 39 41 46 50 51 52 53 54 55 55 57 59 60 60 59 59 56 49 46 50 54 53 55 53 55 51 55 52 45 38 32 34 48 55 59 60 65 65
51 39 37 39 40 37 42 48 53 54 54 53 56 58 60 62 64 58 58 55 55 56 58 57 54 56 56 56 54 59 55 49 52 45 39 40 40 40 43 52 62 65 66 64
55 46 44 42 40 47 51 55 56 55 54 56 60 64 64 62 54 53 54 54 58 60 60 56 58 61 63 63 64 63 57 48 40 40 40 46 48 48 49 46 55 62 64 71
63 48 50 51 53 53 54 54 54 58 62 65 68 63 60 60 59 55 50 47 54 62 67 67 65 63 64 65 63 62 58 47 44 43 46 43 44 48 59 60 57 61 65 78
58 57 56 55 54 55 55 58 60 62 64 64 62 64 62 59 54 56 56 59 62 69 67 64 61 62 64 60 55 53 51 49 48 46 43 43 43 47 43 46 51 56 61 63
56 56 58 58 61 60 63 67 63 65 68 67 64 62 62 59 50 49 54 63 67 66 60 60 61 59 57 54 53 52 50 47 48 46 45 46 48 52 57 56 51 48 58 59
61 58 58 62 66 63 58 59 62 65 62 57 52 41 33 50 55 53 57 56 59 60 57 58 58 55 52 49 51 57 61 68 75 77 74 70 70 67 63 59 59 58 58 67
63 62 66 68 67 66 67 67 64 64 64 62 58 52 41 37 36 40 54 70 64 54 54 52 47 48 71 91 88 87 90 94 75 77 82 91 92 91 85 74 76 78 78 78
81 79 80 84 84 81 79 80 78 68 58 45 41 48 47 39 41 40 37 40 66 73 66 52 58 72 91 95 92 84 88 94 98 99 87 81 79 75 81 87 91 91 90 92
78 76 73 75 77 79 77 75 68 57 60 56 39 36 34 34 35 34 36 39 37 46 66 75 47 60 78 98 100 100 97 89 83 86 86 90 82 80 82 82 83 92 98 96
60 64 64 69 68 68 65 62 56 46 41 44 52 46 39 33 28 31 31 27 28 47 40 67 77 86 84 98 99 100 100 95 87 82 82 83 75 73 77 81 86 90 94 96
49 40 31 34 35 42 42 35 49 62 53 50 47 48 46 37 31 27 27 26 23 36 54 50 53 60 66 82 87 99 99 100 99 95 87 80 79 83 71 74 85 88 95 95
47 38 58 53 54 56 42 29 52 54 50 60 56 38 37 44 42 33 34 31 17 28 39 52 59 48 59 60 59 67 72 87 86 86 90 91 85 87 87 78 81 87 91 92
39 49 57 59 61 62 54 44 39 38 54 59 52 46 43 38 46 44 34 36 28 31 38 42 48 54 60 68 69 66 64 64 67 66 67 82 94 94 93 89 83 86 92 92
49 52 54 56 62 54 55 54 44 34 45 51 54 49 43 47 56 55 37 26 42 50 54 49 48 48 52 57 63 70 72 70 67 65 68 72 74 88 99 95 92 86 91 93
52 54 56 51 49 51 44 28 34 43 49 54 50 40 48 49 49 48 35 46 43 41 38 33 40 45 46 47 49 56 65 71 75 76 76 80 83 92 100 98 98 92 90 94
48 49 54 53 48 38 38 34 54 56 58 53 47 42 48 56 65 44 44 48 46 43 39 34 31 30 32 35 38 36 44 68 79 84 84 84 88 97 100 100 100 98 96 97
53 57 59 60 63 67 67 66 69 58 65 63 53 56 64 72 68 57 53 52 42 30 29 27 27 28 28 27 30 42 43 44 73 87 94 94 91 96 99 97 100 99 98 98
58 60 65 67 67 69 72 73 74 74 73 76 80 72 78 76 72 67 66 60 41 31 31 32 31 32 30 30 30 34 59 64 68 87 94 97 96 95 98 100 100 100 99 98

GFSNGP_850_rhum_153.txt.gz
RH
64 64 62 59 57 62 77 63 72 47 52 42 42 45 36 30 29 31 28 26 27 26 27 28 28 31 34 34 32 32 37 38 32 31 29 32 39 46 50 47 43 38 29 17
75 61 61 73 64 60 53 52 66 60 62 41 39 33 30 27 28 31 32 28 27 30 28 28 29 39 41 40 38 34 35 38 36 31 28 28 30 34 49 54 51 45 39 32
82 64 65 63 55 52 56 51 48 56 42 36 32 33 28 28 33 34 34 39 40 40 40 35 32 38 41 41 41 40 40 44 45 43 36 33 33 34 36 46 57 54 46 41
91 72 76 46 33 31 49 45 45 42 40 35 33 31 29 30 38 37 39 39 40 41 42 42 42 43 44 44 44 43 44 44 42 45 44 40 40 38 34 38 53 59 55 48
88 83 63 44 37 38 33 34 30 33 40 36 34 34 35 35 40 41 40 41 44 46 48 46 46 47 48 46 48 48 48 43 44 45 49 48 41 42 39 41 51 58 60 59
82 85 84 41 38 36 37 39 30 35 39 40 41 60 53 43 46 46 50 51 54 55 53 52 51 54 53 46 45 49 48 46 47 48 47 45 44 46 46 44 47 56 62 64
94 94 77 54 38 39 50 40 32 38 40 43 51 48 49 46 43 44 54 58 58 52 56 49 46 52 55 50 48 49 50 51 52 52 53 47 50 50 49 48 54 53 53 56
86 93 90 45 46 47 41 41 44 52 53 54 53 52 52 50 51 57 58 58 56 56 50 45 47 53 53 48 47 54 55 56 52 53 53 54 53 48 46 43 43 47 57 57
75 72 46 42 39 39 42 51 55 56 55 55 54 54 57 62 62 62 60 55 53 53 54 50 52 53 57 52 55 55 59 58 57 56 55 56 49 37 33 36 42 51 61 65
51 45 44 42 43 49 53 54 54 56 56 57 61 63 64 63 60 58 54 54 47 47 47 51 55 58 64 64 61 61 61 62 63 58 54 46 43 42 40 38 37 41 51 62
64 53 45 43 46 52 55 55 55 53 53 56 58 64 65 59 58 56 48 45 48 55 58 62 63 59 55 58 64 63 61 61 63 58 47 45 47 49 55 54 58 55 53 57
64 49 56 58 56 57 56 56 56 57 57 57 62 64 64 61 56 51 46 46 47 53 62 62 58 54 56 60 62 57 53 55 54 52 50 50 49 46 52 58 52 56 65 55
58 59 62 59 58 57 58 59 58 62 63 67 65 55 46 43 46 56 54 57 56 53 56 58 56 53 52 54 54 54 54 52 50 50 50 53 55 56 50 51 59 64 71 83
54 57 59 59 59 57 59 62 59 59 65 61 55 54 53 50 36 34 39 51 63 70 61 56 54 50 52 50 48 52 55 59 60 66 74 77 76 79 84 75 81 78 74 96
65 63 62 60 58 64 60 56 58 59 63 67 64 56 51 52 47 38 38 40 42 44 62 71 56 57 46 63 86 86 86 87 87 89 89 86 87 94 95 95 90 82 74 73
63 62 60 64 67 73 77 77 80 78 70 60 55 51 41 37 38 41 41 36 33 38 35 54 76 56 56 76 78 81 88 90 88 92 98 98 94 88 86 85 88 85 83 84
67 72 73 70 74 73 74 71 70 69 67 58 46 42 54 48 40 31 25 24 29 28 29 38 53 75 54 66 93 94 87 96 100 98 97 92 86 81 82 81 84 81 81 87
83 78 76 73 70 69 61 54 41 34 32 34 42 45 40 39 37 35 37 34 27 23 21 26 46 66 85 87 84 97 99 100 100 100 100 91 84 82 81 76 72 78 83 88
42 39 38 37 40 48 50 48 47 50 35 26 36 42 40 36 38 34 34 42 44 32 20 23 36 51 55 62 76 91 92 95 99 100 100 100 99 94 87 82 80 71 76 87
34 25 27 24 21 21 21 19 17 25 25 34 43 55 66 61 54 47 39 44 41 39 29 28 29 35 54 62 66 69 74 63 65 63 91 86 96 100 100 96 88 82 78 79
33 34 35 30 30 28 26 38 50 42 33 34 46 46 54 52 48 48 44 45 24 38 34 30 40 42 53 67 70 69 76 76 75 72 72 75 75 75 83 98 98 91 86 84
37 41 49 49 47 46 48 45 39 40 42 44 42 39 42 41 37 40 37 38 30 42 39 41 46 52 53 55 62 68 79 76 77 80 79 76 78 81 85 100 100 100 94 90
44 45 47 47 48 49 50 50 47 44 45 45 48 51 50 51 54 66 60 30 49 56 52 51 42 39 35 38 45 46 46 44 45 59 72 79 83 84 88 96 98 99 99 98
48 47 47 47 48 53 54 50 46 44 42 42 50 52 61 65 64 56 57 54 60 56 58 56 48 34 32 30 30 30 30 36 39 39 46 75 83 88 90 98 99 100 100 99
48 48 49 50 51 52 53 53 52 53 51 55 52 58 62 63 73 63 68 64 68 62 53 51 35 30 26 24 25 25 25 26 32 45 42 50 75 87 92 96 97 100 99 99
50 52 55 58 60 61 62 66 71 67 66 66 54 56 62 65 69 78 79 73 78 68 58 47 36 31 28 26 26 24 23 23 24 30 54 54 60 82 86 91 98 100 99 99
54 57 63 62 56 64 69 73 75 75 75 77 77 64 62 68 74 83 80 74 77 73 63 48 41 41 40 35 32 31 29 28 29 30 50 63 58 62 82 88 92 96 98 100

GFSNGP_850_rhum_156.txt.gz
RH
69 62 62 62 61 64 76 58 66 49 65 44 44 42 40 38 31 33 32 31 30 38 38 38 37 37 33 35 41 42 41 41 40 38 42 41 35 31 33 38 48 54 54 47
76 66 69 76 71 65 59 63 69 63 65 44 41 38 34 32 35 33 33 38 40 40 42 42 43 43 44 44 44 44 44 43 43 43 44 43 44 40 36 35 37 47 58 59
74 69 69 67 55 59 64 58 52 61 46 37 37 35 32 34 39 40 40 42 43 42 40 41 45 46 46 46 46 46 46 46 46 47 45 40 42 46 43 39 40 41 44 57
92 70 78 50 42 38 54 49 52 50 45 36 36 34 32 33 36 42 43 42 38 39 42 48 49 46 47 44 42 45 46 44 46 49 45 43 46 49 49 41 39 40 42 55
88 88 68 46 38 37 36 35 34 42 42 38 40 38 37 39 42 43 42 38 41 49 52 51 44 48 44 38 42 46 44 39 42 48 48 50 49 47 47 49 45 41 39 45
88 90 84 48 37 36 34 44 34 40 40 41 42 60 60 46 49 46 44 46 55 60 58 48 44 49 46 41 44 45 45 42 46 51 54 51 49 50 50 51 50 48 44 42
89 90 82 57 43 39 55 48 34 47 50 50 53 51 52 52 49 46 48 55 59 56 50 46 47 52 49 47 47 49 48 49 49 48 51 49 53 52 54 55 55 50 47 43
79 92 92 48 46 54 46 46 52 55 55 54 54 54 54 54 55 57 59 57 56 55 46 43 44 52 52 51 53 52 52 53 56 56 56 58 54 56 58 54 48 44 42 38
78 72 49 45 43 45 51 54 54 54 54 54 54 56 56 55 54 59 58 58 50 48 48 46 49 57 59 54 52 50 50 53 57 58 60 59 55 51 44 42 42 41 44 42
64 50 51 45 46 53 56 56 56 56 55 56 58 55 56 63 61 60 56 48 46 47 46 46 55 59 58 57 56 58 61 60 56 57 60 59 49 47 46 45 48 50 51 56
62 56 46 50 52 58 60 58 58 58 58 59 58 57 62 63 64 58 54 48 49 55 54 50 51 53 52 52 53 55 55 53 51 52 54 51 49 48 47 46 52 55 52 58
61 51 62 63 68 64 60 58 58 59 56 54 62 67 61 49 43 37 37 48 50 54 59 61 55 52 53 49 51 52 51 50 50 49 49 49 48 42 50 54 54 56 59 66
58 57 61 64 71 66 61 60 57 59 61 64 67 59 56 55 53 50 40 36 38 39 38 50 62 64 58 56 46 49 53 59 63 70 73 76 77 78 76 72 82 82 82 88
52 64 71 63 63 62 60 62 58 58 59 62 64 65 57 48 43 47 48 42 40 38 38 38 35 50 70 58 53 85 85 83 83 83 84 86 92 90 88 92 92 81 84 86
54 58 65 68 64 65 67 68 69 71 74 72 61 56 52 49 47 40 35 35 33 31 32 32 29 30 59 67 62 77 78 84 84 84 94 99 100 99 100 100 99 93 86 79
64 66 66 69 80 76 78 76 71 64 56 46 40 38 42 49 49 43 40 41 45 42 34 31 25 23 32 70 60 62 77 90 99 93 99 100 100 98 92 92 93 83 80 80
71 76 88 84 71 62 58 56 56 48 42 36 35 34 31 30 34 42 42 44 41 35 36 37 29 25 38 53 84 86 85 88 94 100 99 100 100 100 99 94 88 85 80 74
69 57 46 44 43 43 36 31 25 24 22 22 27 28 26 29 34 35 37 38 35 29 26 27 37 29 27 32 49 63 70 76 92 95 91 98 99 100 100 99 100 98 87 80
83 77 51 37 25 23 27 27 28 27 26 30 36 37 31 22 24 29 28 27 24 24 17 24 32 39 28 24 27 48 66 69 72 71 68 68 66 72 97 92 95 100 99 89
54 41 36 31 34 31 29 30 34 37 36 37 37 36 34 30 31 33 36 33 22 21 25 28 34 38 33 39 55 43 49 60 62 64 56 74 74 74 73 78 80 86 100 100
32 34 39 40 40 42 44 42 45 44 44 47 50 42 38 31 30 30 38 47 25 32 38 39 49 49 43 48 58 57 51 54 60 65 74 54 59 71 76 82 83 78 87 100
40 40 40 41 46 47 46 47 48 48 51 52 48 46 46 44 39 42 45 52 41 45 52 53 56 54 51 49 44 37 38 45 47 47 46 48 68 82 81 87 89 83 87 93
42 45 49 50 50 49 48 48 48 50 51 53 53 53 50 48 57 69 66 42 63 60 63 60 66 58 59 52 45 40 36 36 33 34 40 45 45 54 78 89 88 84 93 96
48 48 50 49 51 52 52 49 47 50 52 55 58 58 62 63 59 58 65 68 68 68 70 70 71 65 65 48 34 38 38 35 30 29 29 36 50 53 54 76 90 92 94 95
50 51 52 52 53 53 52 49 55 54 58 60 62 64 64 68 74 66 72 72 75 76 71 74 76 69 63 48 36 38 38 34 30 28 25 25 30 47 54 56 73 90 94 93
51 55 59 60 59 57 51 50 56 53 63 66 68 72 77 74 76 79 77 73 76 80 78 73 72 66 63 51 41 42 42 40 36 32 29 25 24 31 51 62 66 84 97 97
61 64 58 48 42 44 46 50 59 52 53 61 71 69 78 83 80 78 80 77 72 72 73 72 71 65 62 53 44 51 51 46 44 40 36 37 39 43 53 77 94 96 98 98

GFSNGP_850_rhum_159.txt.gz
RH
70 65 60 62 62 71 77 61 62 47 61 43 45 50 38 38 32 32 33 34 41 42 42 40 39 38 41 43 44 45 45 44 45 45 44 43 44 44 43 45 40 37 36 36
72 64 73 74 71 70 66 63 68 58 62 45 38 38 39 32 36 37 42 43 43 40 36 35 36 41 43 44 42 42 41 41 43 45 46 46 46 44 39 41 46 45 41 40
67 74 74 70 63 61 62 64 55 58 44 40 39 38 33 34 41 43 44 44 41 40 37 33 38 45 42 40 40 38 37 37 40 41 39 41 42 40 41 44 48 49 44 44
92 74 79 48 45 43 57 56 57 50 47 40 38 34 33 35 42 45 44 42 41 41 38 36 44 44 41 40 40 40 38 37 37 37 34 34 39 41 42 47 47 48 48 45
86 90 70 48 41 45 47 38 44 48 42 41 39 40 40 42 45 45 46 44 42 46 49 54 52 47 44 42 44 44 42 40 40 42 41 41 41 44 47 46 48 49 47 49
94 95 86 51 36 37 34 56 40 43 44 44 46 57 58 50 51 48 46 48 55 56 53 52 49 46 44 44 48 49 50 49 50 52 54 52 50 48 49 53 53 55 54 53
87 86 78 58 43 39 62 56 39 48 52 53 58 51 50 48 46 45 45 49 54 52 49 46 46 47 46 47 49 49 49 49 50 53 57 58 56 56 55 57 59 55 49 44
84 92 91 53 45 56 51 50 55 55 54 53 52 52 52 51 50 43 42 47 50 50 45 44 48 51 50 52 52 50 50 52 54 55 56 58 61 60 54 52 48 44 42 38
80 72 51 49 47 48 53 54 54 54 53 54 55 55 55 54 47 52 58 60 53 48 45 46 48 53 54 53 51 50 50 52 54 52 51 54 58 58 51 49 49 46 48 48
69 54 58 48 48 54 58 59 58 57 57 57 57 57 56 53 56 60 61 56 54 52 55 56 61 58 56 55 53 51 49 49 49 49 48 49 51 52 50 49 48 48 46 48
67 56 48 52 52 52 58 63 63 59 59 60 62 60 63 64 64 52 44 38 38 44 46 45 45 50 58 62 57 56 49 48 49 49 49 48 50 53 54 54 56 57 60 62
65 50 53 59 57 58 61 62 67 64 61 57 60 65 70 61 57 56 54 51 43 39 40 40 40 38 34 54 62 58 54 73 81 81 81 82 80 74 76 80 82 87 89 88
58 56 59 59 63 66 65 70 66 61 58 58 65 67 62 64 54 48 44 44 44 43 41 39 39 36 31 35 60 62 62 85 82 82 79 78 80 93 90 76 86 86 89 88
53 58 65 70 68 68 67 64 62 59 59 62 66 70 61 53 45 40 40 42 42 39 35 33 28 25 25 27 32 56 59 74 78 89 92 93 89 97 100 99 95 82 86 92
64 62 67 75 79 74 72 75 77 79 75 69 60 52 44 40 35 32 33 37 38 35 32 29 28 28 27 21 26 40 64 59 68 80 98 95 100 98 100 98 93 88 82 79
74 77 79 91 97 98 98 88 76 62 52 36 30 35 43 45 41 29 26 26 26 22 23 24 22 23 31 29 23 32 59 80 79 74 75 86 91 98 99 99 99 98 97 96
90 95 72 51 46 41 39 36 37 30 30 34 37 42 40 36 30 25 23 28 35 33 26 21 18 19 21 32 33 26 30 42 63 66 71 77 82 88 92 98 97 97 98 92
70 65 58 48 47 41 36 32 31 30 25 23 26 34 35 34 32 28 24 24 23 23 21 25 29 28 25 27 37 35 31 34 53 72 72 72 72 67 62 65 63 67 76 74
66 52 50 38 29 28 26 25 23 27 30 33 37 36 36 34 35 32 26 25 24 26 19 23 28 33 38 39 47 45 37 33 41 54 63 69 74 69 74 67 64 67 67 65
31 27 31 36 36 40 40 37 39 40 40 39 39 39 42 37 36 34 33 34 28 26 28 28 38 38 38 40 52 52 50 52 49 53 55 66 70 66 65 67 69 66 73 72
32 30 30 34 36 37 40 44 47 47 43 44 46 47 47 48 49 49 49 49 27 27 35 42 42 41 46 47 55 54 54 54 46 44 49 55 54 55 57 61 62 76 80 82
36 35 36 39 46 48 44 45 48 50 51 50 49 51 53 55 56 58 56 56 38 35 50 54 52 51 55 61 61 58 60 61 56 45 46 53 52 50 48 46 45 60 80 87
45 44 42 40 41 46 50 50 51 52 50 51 54 55 59 62 67 71 70 50 57 62 70 66 64 67 70 74 68 67 69 65 49 42 41 47 48 47 50 50 47 46 63 89
48 46 47 47 53 55 56 48 45 45 48 46 47 50 59 65 66 69 73 70 70 73 75 75 76 78 85 84 80 75 72 53 45 41 36 40 44 42 43 46 56 62 61 72
50 50 52 56 58 54 51 45 48 41 43 45 47 45 48 53 68 68 78 78 76 76 74 70 73 80 86 84 81 79 73 52 45 43 37 38 45 43 39 41 63 71 74 77
57 60 62 64 59 52 48 50 48 42 47 48 48 52 52 54 63 66 76 82 79 73 65 61 65 73 79 80 80 79 75 56 50 52 49 48 49 48 52 57 57 57 65 95
68 68 65 56 44 42 42 43 51 47 52 60 59 57 61 60 61 67 70 78 75 66 60 57 63 77 83 84 80 76 70 54 51 56 54 51 49 50 48 48 59 74 81 90

GFSNGP_850_rhum_162.txt.gz
RH
68 66 65 65 66 73 75 56 56 41 56 35 46 62 43 39 36 33 36 37 43 41 39 38 36 34 32 32 38 39 39 39 38 37 38 40 42 44 45 44 42 39 40 45
67 62 72 74 68 70 71 66 70 62 62 47 38 37 43 41 36 38 40 43 42 41 41 41 40 38 36 34 33 32 34 37 37 36 36 35 35 35 37 39 41 42 46 49
60 72 68 57 59 60 59 68 56 59 40 43 44 44 37 34 39 41 44 44 43 43 42 40 39 38 39 40 41 41 41 42 41 40 39 38 36 35 38 40 43 44 46 48
88 72 78 45 46 48 59 58 58 51 48 42 40 37 37 35 40 46 47 47 45 42 39 39 41 42 43 44 43 44 48 47 49 49 46 45 44 45 45 44 42 43 45 49
87 89 70 48 44 50 54 46 54 59 56 44 42 42 42 43 48 50 50 46 40 37 36 42 49 48 47 46 45 46 48 47 48 49 46 45 44 46 49 48 48 49 51 54
90 97 88 51 39 40 37 65 42 46 46 46 48 64 60 48 50 47 45 43 40 37 41 50 48 47 47 46 46 47 47 47 49 53 54 52 52 54 55 56 53 53 52 54
87 93 83 60 48 40 63 58 41 46 51 52 60 52 51 50 49 50 49 45 45 48 50 50 48 48 47 48 50 50 50 50 51 54 54 53 50 54 58 59 53 49 46 45
84 93 90 53 50 60 52 50 54 55 54 54 53 53 53 53 54 54 50 45 50 57 52 48 54 54 50 48 49 51 52 51 49 50 52 51 51 51 54 54 51 48 46 44
80 74 52 50 45 43 47 53 56 56 56 56 56 56 57 57 57 55 55 60 62 57 52 50 58 61 60 55 52 49 52 54 48 46 47 47 46 46 45 47 46 44 43 40
70 57 58 50 50 49 53 55 57 60 59 58 59 60 60 60 57 58 62 56 45 40 40 43 43 41 42 38 36 52 54 55 55 63 65 71 73 75 70 68 63 58 56 57
76 61 49 46 45 48 55 58 66 62 64 63 62 61 61 58 61 65 56 54 54 52 46 41 40 40 40 38 35 38 54 54 66 73 72 71 70 71 72 79 88 84 83 85
68 50 52 53 51 57 63 74 68 68 68 66 62 60 62 68 65 61 57 52 46 45 45 43 41 41 38 34 30 31 36 54 67 80 75 77 80 76 76 82 84 98 99 98
67 64 68 73 63 62 70 70 70 70 68 68 62 62 68 65 66 57 49 42 42 39 36 35 33 28 28 27 23 22 26 33 59 73 85 84 86 86 76 66 75 84 90 88
63 67 68 68 81 90 93 94 85 86 77 62 65 72 80 79 56 43 36 33 33 34 32 33 30 25 23 23 27 26 20 24 48 64 65 76 87 86 88 100 98 76 84 92
82 76 80 94 97 99 99 97 94 93 93 85 80 67 52 48 42 37 33 30 27 24 22 25 22 16 19 21 20 21 26 23 26 44 64 76 81 89 92 88 100 99 86 78
86 86 91 80 57 51 48 48 50 46 44 44 39 36 38 40 38 35 31 31 32 26 22 22 21 20 23 20 19 18 19 25 29 25 24 27 39 54 70 81 80 88 95 87
85 64 53 52 48 45 46 40 36 38 37 36 30 30 33 33 31 26 26 27 28 25 23 23 20 20 23 28 29 26 25 25 30 34 31 28 32 45 50 68 81 75 70 68
66 63 60 48 38 44 40 35 33 30 30 30 32 34 35 38 37 32 28 29 29 25 20 23 23 20 21 28 36 36 36 32 28 35 41 44 52 56 57 55 67 80 69 66
41 41 40 39 36 37 38 35 34 37 33 29 29 33 37 36 36 34 34 38 40 42 19 21 23 28 26 28 40 47 49 48 48 46 47 52 58 59 60 63 66 74 82 77
32 34 34 32 29 28 30 30 32 36 35 41 44 46 45 43 41 42 43 47 44 35 32 33 38 37 33 39 52 60 59 59 67 67 62 60 53 46 48 56 59 60 65 73
40 44 46 39 38 37 37 37 41 41 44 51 52 50 49 47 44 46 49 50 30 37 45 50 54 49 50 62 73 70 69 73 77 75 73 69 62 48 43 48 51 54 58 58
54 55 48 48 48 46 39 39 41 47 50 48 49 49 51 48 45 48 50 54 50 53 63 65 64 63 72 73 76 78 78 80 82 80 79 78 59 50 47 41 39 47 65 89
49 50 52 53 50 50 48 43 42 47 49 52 51 47 47 47 50 56 58 47 61 68 77 76 74 74 81 84 84 85 80 79 81 80 81 71 56 53 49 42 36 42 83 98
47 48 52 52 53 55 54 40 41 45 49 46 41 40 48 51 49 52 52 57 59 69 79 81 80 83 88 84 80 79 80 82 82 80 80 62 49 46 47 46 40 36 50 84
46 49 56 60 62 59 54 48 50 42 41 38 36 38 44 49 61 54 59 62 62 68 75 76 76 81 81 77 75 78 82 86 87 85 81 61 52 52 53 51 49 50 57 82
51 58 60 60 60 56 54 54 54 44 49 49 44 47 51 58 62 65 66 71 69 68 71 72 72 70 68 68 73 80 86 89 91 88 86 70 66 67 66 62 57 56 59 76
58 52 50 45 40 40 42 46 52 50 55 60 61 58 66 70 73 75 77 80 77 75 72 73 74 70 66 67 74 81 87 90 92 89 82 76 76 75 71 66 60 57 54 51

GFSNGP_850_rhum_165.txt.gz
RH
61 57 66 65 63 74 68 55 48 26 46 28 35 64 54 32 34 38 33 35 38 43 41 40 40 38 37 38 38 34 31 31 34 34 35 34 34 34 33 34 34 36 36 38
63 62 68 69 63 73 69 62 60 51 56 40 33 32 38 36 39 40 36 40 46 44 43 42 41 40 38 36 34 36 40 40 41 42 42 42 42 40 38 36 35 36 38 42
54 73 68 64 66 64 62 69 59 59 40 38 41 43 39 36 38 40 40 47 46 45 44 40 35 30 28 35 42 43 44 45 48 48 46 45 44 43 42 42 43 44 43 43
83 68 78 43 52 51 57 54 60 49 48 42 41 38 40 38 38 45 49 48 46 41 37 36 32 32 37 43 45 46 47 48 49 47 46 47 47 48 48 47 49 49 49 51
85 87 67 47 46 51 56 48 50 56 55 48 44 46 44 42 48 50 50 47 44 43 41 38 42 44 44 45 47 46 46 47 47 48 48 49 50 50 52 52 54 55 53 51
90 97 85 50 38 40 40 64 44 51 49 48 50 60 58 50 52 50 50 49 48 44 40 41 47 48 47 46 46 48 49 50 50 50 49 49 49 48 49 53 55 55 50 48
85 93 82 60 48 42 60 53 45 47 49 51 59 53 52 51 51 52 52 52 51 50 47 53 53 50 52 55 52 49 49 50 51 50 47 46 45 45 45 46 48 50 49 48
81 92 91 53 51 57 51 46 48 54 57 56 56 55 54 53 54 55 55 54 53 54 55 57 55 57 57 57 55 49 47 47 49 52 50 49 48 47 50 50 46 47 45 44
80 73 54 53 49 44 46 47 52 57 59 64 62 59 59 60 61 60 59 57 61 58 48 43 45 45 43 41 40 37 34 39 47 50 65 72 70 68 65 67 67 67 69 64
69 56 58 51 47 47 49 52 56 62 76 74 71 63 63 63 62 60 58 64 57 55 54 53 49 42 41 40 41 42 38 36 46 51 65 72 74 76 77 74 73 77 77 74
79 64 51 48 53 56 54 61 66 69 73 78 78 72 65 66 67 62 66 62 59 55 49 45 44 44 42 37 33 30 32 31 31 46 60 70 75 79 84 84 79 90 87 86
70 56 63 66 73 75 78 85 86 81 84 88 95 71 75 71 65 66 64 60 50 42 42 37 36 33 31 32 30 29 27 23 21 24 35 55 65 67 79 74 74 80 99 94
74 74 74 83 81 80 83 90 83 83 89 95 96 85 68 69 68 69 62 50 40 33 28 28 29 24 24 29 26 24 23 22 26 24 24 40 58 65 63 52 65 64 75 88
75 76 79 80 84 86 94 95 96 92 88 88 89 91 92 80 63 48 39 38 36 31 26 25 24 21 22 26 25 22 21 21 25 28 29 29 35 46 64 76 65 43 54 79
81 76 84 96 98 87 60 53 50 54 60 60 59 54 47 44 40 36 33 33 32 29 24 24 22 17 18 20 21 22 21 22 24 27 29 34 34 33 36 42 53 51 45 54
94 83 70 56 49 49 51 48 51 50 45 38 37 37 35 33 31 30 29 28 34 32 28 31 29 24 25 23 20 19 21 25 28 28 28 30 33 38 37 37 45 49 40 37
77 73 64 60 54 35 38 45 46 42 39 36 32 32 33 32 31 29 31 35 37 35 35 36 33 30 27 26 29 29 27 27 30 34 35 32 37 44 50 54 54 51 46 39
55 42 32 36 34 29 25 22 23 25 28 28 29 32 33 36 40 37 34 36 36 32 25 22 26 31 34 34 38 40 40 38 38 39 42 41 44 52 56 62 65 60 50 47
41 34 32 34 29 30 32 33 32 30 28 27 28 29 33 36 34 35 40 45 43 35 20 32 36 42 42 43 54 54 51 53 53 52 53 55 58 62 65 66 62 50 47 51
62 54 52 40 37 45 52 47 41 43 38 35 38 40 36 30 33 40 45 44 36 36 39 44 48 49 52 57 59 61 61 63 67 65 65 69 68 66 68 68 66 54 53 62
64 67 67 67 59 52 56 46 46 46 40 44 48 45 44 45 46 48 49 49 35 37 46 50 52 55 61 67 70 67 70 73 80 83 76 74 77 76 76 76 65 54 54 60
36 37 36 39 45 48 48 48 48 49 48 47 44 46 52 50 45 47 46 50 43 44 48 51 53 60 75 77 79 77 79 82 85 86 86 89 90 90 90 84 62 57 56 75
33 35 39 41 41 45 52 52 51 54 53 51 49 49 54 50 49 54 45 37 50 54 59 57 56 63 76 88 93 93 89 85 83 84 90 100 100 98 98 80 59 57 55 57
38 37 37 41 50 56 55 45 50 51 53 51 50 49 51 48 42 44 46 52 53 58 63 63 64 70 79 88 92 89 85 82 82 88 99 100 100 98 93 69 60 59 63 72
38 41 44 50 57 52 47 42 46 40 42 43 42 44 46 50 59 51 63 65 65 67 68 70 74 77 80 79 78 78 77 76 85 96 100 100 97 97 90 72 68 67 67 65
42 40 44 47 45 40 40 43 45 43 47 47 45 49 50 59 68 73 73 77 76 74 77 78 81 80 79 79 78 70 69 75 89 97 100 100 96 91 82 74 75 73 68 62
40 43 42 40 38 38 41 47 52 52 56 58 58 58 65 70 75 79 80 81 84 85 84 86 85 82 81 79 77 74 74 77 86 98 98 97 96 91 80 72 72 70 64 59

GFSNGP_850_rhum_168.txt.gz
RH
42 39 46 42 40 54 55 38 32 18 22 16 16 21 30 37 34 36 39 36 37 45 45 42 42 40 38 34 29 26 25 28 32 36 38 40 41 42 42 41 40 40 38 37
42 47 48 48 36 37 41 38 36 35 36 22 24 26 28 30 36 41 40 41 41 45 44 44 42 36 32 29 25 24 32 38 41 43 44 45 45 44 43 42 43 43 44 44
47 54 51 46 36 38 41 44 37 37 27 26 26 29 33 36 38 40 41 44 50 47 46 42 38 36 32 30 32 37 42 45 46 45 44 44 45 46 45 45 45 44 46 47
60 57 60 35 40 39 42 38 40 38 34 34 38 40 43 42 41 44 49 52 49 46 44 43 40 37 34 36 38 42 46 47 47 46 46 47 49 50 48 48 48 50 51 51
62 57 42 29 45 45 46 34 35 39 36 42 46 45 43 47 52 54 54 50 48 48 47 46 42 39 37 42 45 47 47 48 49 50 49 49 49 50 50 49 49 50 53 52
72 75 58 40 37 39 37 42 41 45 43 45 47 41 44 53 53 52 51 52 51 50 49 48 46 45 48 49 52 53 51 48 48 48 49 49 47 46 45 44 44 45 46 49
66 71 59 44 42 43 53 44 45 47 51 52 50 52 55 53 53 52 53 54 54 54 52 51 52 55 53 52 55 56 53 45 42 45 45 47 51 56 56 58 58 57 56 51
68 73 78 51 48 49 46 48 49 56 60 59 62 62 61 61 57 58 58 58 58 54 51 52 50 48 49 49 46 42 40 38 36 42 50 52 62 66 68 68 65 63 62 64
54 52 50 52 48 49 55 53 57 58 56 68 73 73 73 69 60 62 62 61 57 56 56 53 52 52 48 44 42 41 41 42 39 36 43 53 65 67 68 72 73 68 57 62
58 42 45 48 57 57 60 61 58 61 72 80 80 76 80 77 70 65 64 64 62 61 59 58 53 48 46 45 42 39 35 30 26 27 28 38 56 70 69 66 68 68 61 64
52 48 47 46 66 78 77 77 77 79 78 82 89 97 91 84 78 73 77 69 63 60 55 48 42 38 37 39 39 33 30 28 28 30 26 23 28 48 65 68 74 74 69 73
57 45 64 69 76 72 76 77 79 78 80 84 96 98 87 83 85 84 80 67 65 56 48 39 30 27 28 33 35 33 27 23 22 23 24 29 30 33 45 53 64 70 73 80
70 74 71 70 76 78 79 77 80 90 96 96 84 88 92 90 89 78 76 73 60 42 36 33 31 26 24 26 25 24 23 22 21 21 21 23 26 32 31 24 27 28 32 41
73 76 75 79 87 81 85 81 70 64 68 76 77 79 82 73 59 48 41 37 35 35 32 30 28 25 22 23 25 25 22 19 18 18 21 24 27 27 28 31 28 24 27 26
78 79 79 78 73 69 58 57 50 47 46 45 42 42 45 47 44 39 36 37 37 36 34 36 33 28 27 27 27 25 24 23 24 23 23 24 27 28 31 33 31 28 26 28
76 75 74 66 60 56 47 40 40 40 38 34 32 31 33 34 34 32 29 32 36 32 29 34 33 26 28 28 29 28 29 29 31 29 27 27 26 31 32 33 37 41 39 33
75 69 65 63 51 34 32 34 32 27 26 27 27 26 27 26 26 26 25 26 28 28 24 29 26 26 30 32 37 40 42 41 38 40 37 35 38 41 44 49 51 52 50 47
44 39 51 36 33 38 35 31 29 32 37 40 37 34 32 33 35 30 25 28 29 25 17 22 27 33 38 42 49 53 57 55 54 51 52 55 58 60 60 62 60 62 59 60
61 54 45 44 44 48 46 45 38 40 50 54 56 46 45 43 39 37 33 37 35 32 22 28 34 41 48 50 55 62 64 69 71 70 70 70 74 74 78 77 73 71 71 71
53 59 66 66 64 68 71 69 66 54 54 57 54 51 50 44 41 42 41 42 40 43 38 38 42 45 47 49 53 63 71 75 81 80 80 86 92 94 88 86 83 78 81 86
40 34 31 30 34 36 36 35 40 44 45 50 54 53 52 47 44 46 48 55 37 40 42 42 45 48 52 55 61 67 80 83 86 91 93 95 98 98 100 100 98 100 100 90
34 38 37 38 38 36 33 37 39 40 41 44 48 54 57 54 50 48 48 55 39 38 42 44 47 52 59 63 68 67 75 94 100 100 100 100 100 100 100 100 100 100 100 89
45 43 44 43 41 45 47 42 38 42 47 47 47 47 52 54 56 60 50 46 47 48 52 53 56 58 65 71 74 76 79 81 80 81 88 96 100 100 99 100 100 100 100 83
48 46 45 45 47 45 40 30 37 44 44 39 38 40 45 47 46 48 48 54 59 62 64 64 65 71 78 82 80 82 84 83 84 80 78 88 100 97 97 100 100 100 98 78
55 50 48 47 44 37 34 32 35 35 36 37 40 41 43 46 54 55 64 67 70 74 73 74 77 79 82 83 86 86 85 80 76 75 77 83 98 97 100 100 97 98 84 76
46 46 43 43 42 38 37 40 46 49 54 53 56 56 58 65 67 67 71 76 79 80 82 82 84 88 87 88 89 92 89 81 77 75 84 84 98 100 98 99 97 95 86 83
44 42 44 48 46 47 51 58 71 72 73 78 82 80 83 85 85 86 84 84 86 86 86 88 89 94 95 94 93 90 90 84 85 95 100 100 100 100 100 96 96 97 89 84

GFSNGP_850_rhum_171.txt.gz
RH
36 32 34 38 34 36 44 34 25 16 17 13 15 18 17 17 25 31 32 34 36 38 40 43 46 49 49 38 32 28 25 23 26 31 38 41 42 42 42 42 43 44 45 45
37 34 38 42 33 31 31 33 30 26 27 20 24 25 23 24 26 27 31 35 36 40 46 47 48 52 42 36 32 30 28 30 32 34 39 41 41 41 41 43 44 45 46 50
46 41 41 40 31 30 32 28 29 33 24 24 26 30 30 35 36 34 34 36 38 44 47 51 52 41 39 38 34 33 33 37 41 43 43 43 43 43 44 45 45 46 47 50
58 54 64 36 34 35 32 32 30 32 31 30 33 37 40 39 39 39 44 45 48 51 53 55 48 44 43 40 38 40 41 44 45 44 44 45 45 46 45 45 45 45 45 47
58 47 35 29 42 40 39 32 31 33 32 37 40 42 42 49 47 50 52 52 55 56 57 52 51 49 44 42 44 46 48 49 50 48 45 44 45 45 45 45 44 43 42 41
54 66 54 37 33 34 35 43 40 40 39 40 42 40 42 52 53 53 55 58 54 54 52 55 58 52 46 46 52 56 62 54 53 45 40 39 42 44 51 56 57 58 57 56
60 61 46 34 36 40 53 47 40 42 46 46 46 48 53 54 54 54 59 57 55 55 56 55 50 48 48 48 55 63 52 45 41 39 38 40 46 49 61 67 68 65 64 60
54 61 68 44 44 45 46 46 49 51 53 53 54 56 58 62 66 65 63 66 66 63 60 56 51 50 50 51 52 48 44 42 41 42 42 38 38 46 59 69 68 66 64 54
42 42 44 46 45 48 52 52 53 55 55 57 58 66 67 69 73 73 70 68 70 68 64 61 58 60 61 57 56 51 46 43 40 36 29 28 33 33 51 73 86 80 76 64
46 34 35 40 45 48 63 67 67 64 64 70 73 86 91 95 97 86 80 75 74 73 69 65 63 59 59 58 44 40 39 36 34 30 26 26 31 36 39 46 79 95 94 82
46 39 37 38 42 64 72 70 68 70 73 78 84 87 90 91 89 87 90 86 88 86 81 71 57 49 41 50 44 36 32 31 30 31 28 23 22 23 27 27 42 65 63 71
54 41 48 55 60 68 72 73 79 83 82 82 93 94 92 88 86 86 82 80 80 81 78 64 56 42 33 30 27 26 24 22 21 23 22 23 26 24 20 22 21 24 27 32
59 68 68 66 67 73 78 81 79 79 84 81 81 78 78 82 80 80 79 76 69 65 61 48 42 38 33 32 31 30 28 26 24 22 20 19 20 25 26 17 21 20 20 21
70 68 58 69 72 83 67 64 58 58 57 54 55 59 57 57 57 57 58 58 56 42 37 35 33 31 30 30 26 26 29 28 27 24 24 23 22 21 21 25 23 17 21 23
76 61 71 72 62 61 59 55 56 47 40 40 39 39 40 40 41 42 40 43 44 35 24 27 41 31 25 27 28 29 29 28 33 32 31 32 33 32 28 25 24 24 21 23
75 69 69 64 55 53 52 48 46 39 37 35 25 28 35 40 41 41 41 40 47 45 30 25 27 20 23 25 30 31 32 33 38 43 45 46 47 50 50 58 60 51 50 35
73 64 46 51 41 36 43 44 44 43 43 41 38 38 44 48 51 52 49 46 51 52 50 42 26 25 28 34 40 44 48 50 52 57 58 64 72 76 73 78 73 63 56 55
42 44 52 58 62 56 49 46 47 50 52 52 48 46 54 58 58 56 54 50 53 52 37 27 37 38 41 43 45 47 52 54 55 58 63 71 77 88 95 93 92 94 88 70
35 37 45 56 56 62 60 53 52 56 61 71 66 58 60 60 55 55 51 55 52 53 27 39 41 49 47 46 48 50 52 57 56 58 69 85 95 93 96 97 98 98 99 100
35 34 39 37 29 30 32 33 48 54 47 51 53 60 57 49 52 55 60 64 57 41 36 34 43 42 41 39 42 50 57 58 60 65 84 100 100 100 97 99 100 100 98 98
27 29 38 33 33 37 38 45 53 54 50 48 56 57 58 49 46 49 65 69 38 43 51 51 48 44 44 45 50 56 64 69 77 85 83 100 100 100 100 100 100 100 99 99
47 50 49 48 49 52 51 47 45 44 44 53 44 50 60 54 46 43 44 51 39 45 50 49 48 51 54 59 64 67 70 80 97 99 100 100 100 100 100 100 100 100 94 96
46 48 50 51 54 53 52 46 38 36 44 41 40 42 44 43 41 50 47 35 42 49 58 61 62 62 65 71 76 81 87 100 100 100 100 100 100 100 100 100 100 97 95 96
53 54 53 54 55 57 56 35 35 41 48 45 40 38 41 43 42 47 50 51 57 64 64 62 67 73 80 86 88 88 96 100 100 100 100 100 100 100 92 100 100 96 98 99
55 53 52 51 54 53 47 47 56 53 50 53 53 51 57 63 69 59 76 75 72 74 76 78 80 81 85 85 87 93 100 100 100 100 100 100 100 100 100 100 100 100 96 97
56 62 65 61 64 66 67 72 75 75 75 76 76 75 80 83 85 88 89 91 87 86 87 86 87 88 90 92 93 99 99 97 100 100 100 100 100 100 100 100 100 100 99 96
76 77 76 76 76 76 77 80 84 86 89 90 90 91 92 94 97 99 99 99 98 96 95 93 95 96 97 97 96 98 100 100 100 100 100 100 100 100 100 100 100 100 100 97

GFSNGP_850_rhum_174.txt.gz
RH
49 39 33 40 41 42 52 49 49 31 34 27 30 32 28 24 23 26 31 33 33 34 35 39 43 46 49 48 44 36 32 30 28 28 30 31 35 39 40 40 41 41 42 44
48 38 39 49 45 41 39 41 40 38 37 26 26 30 30 30 33 34 33 33 31 35 37 41 44 48 51 48 40 38 35 33 31 32 34 38 40 41 41 41 42 43 44 46
66 46 51 51 41 44 39 31 33 43 34 34 38 37 38 38 39 38 37 36 38 38 40 46 49 50 48 43 41 39 36 34 35 36 39 43 44 44 43 42 42 42 43 44
84 59 74 40 36 39 41 38 32 35 35 38 39 40 41 40 40 41 47 48 46 48 50 52 53 51 49 46 44 42 42 42 42 47 49 48 46 44 41 40 40 42 43 43
80 67 52 36 43 41 42 47 42 40 42 39 41 41 48 49 50 51 52 53 52 52 53 53 51 51 50 48 45 43 48 52 57 57 53 47 41 38 40 41 42 50 55 54
65 76 75 43 36 34 37 59 44 43 46 46 45 65 63 52 52 53 54 56 58 56 54 55 58 59 56 50 49 50 56 59 55 47 43 41 40 41 41 45 50 57 60 60
82 84 63 42 38 39 58 61 43 46 49 52 58 55 55 56 57 59 62 63 63 64 63 62 61 60 57 52 49 54 53 50 48 46 44 43 43 42 38 39 48 60 66 61
69 73 79 44 44 52 55 47 50 54 56 58 57 58 58 64 71 74 77 77 73 68 69 69 68 63 62 60 57 58 57 55 50 46 44 41 36 29 26 29 36 51 72 72
55 61 46 43 45 47 51 54 60 63 64 64 65 63 72 71 66 72 73 72 77 79 72 71 69 66 62 59 59 56 49 41 37 36 33 30 27 24 24 26 30 33 57 82
55 43 41 40 42 47 59 66 70 69 69 68 70 71 80 85 89 90 88 84 87 86 84 84 78 72 74 80 64 54 42 32 29 29 26 24 23 23 24 22 25 33 41 45
59 48 43 40 56 64 69 70 69 69 71 75 79 85 86 89 90 88 87 86 82 83 85 83 80 76 64 54 42 34 32 27 24 23 22 22 20 19 18 17 20 28 24 32
62 47 50 58 64 65 68 71 76 75 65 73 80 80 80 78 77 78 74 70 70 69 69 67 61 54 40 38 41 42 38 34 29 28 25 23 22 20 18 19 18 18 18 20
57 59 63 66 79 76 65 64 61 64 61 61 52 55 56 56 52 55 41 39 42 54 52 43 38 37 31 30 37 34 32 31 28 23 20 20 20 21 21 15 16 17 19 20
61 67 63 63 69 73 55 48 47 44 36 43 44 41 40 32 29 33 37 43 43 40 37 32 32 28 22 25 29 28 29 26 28 25 26 28 32 39 39 36 34 26 21 26
69 65 55 54 48 28 28 33 34 32 30 32 30 31 25 26 31 34 37 41 45 48 46 45 46 44 36 35 41 40 35 33 31 33 37 44 51 51 51 53 52 47 42 33
64 58 65 44 31 26 28 29 33 29 31 35 40 40 35 34 37 41 45 48 52 52 51 50 48 36 40 44 40 38 38 41 44 47 50 56 54 58 60 63 66 67 65 62
60 74 48 34 26 23 30 40 43 42 42 43 45 48 52 52 51 51 49 54 58 55 49 41 36 36 36 40 45 54 52 49 46 52 58 55 57 61 70 81 86 88 83 79
58 35 32 33 41 47 41 36 38 37 30 30 42 44 54 60 59 53 48 50 52 50 36 30 42 46 45 50 63 65 60 53 51 53 54 55 58 67 86 96 97 96 95 96
64 37 36 33 35 47 48 46 36 30 35 40 53 53 48 46 42 43 45 52 56 57 35 44 57 60 59 57 60 53 48 47 51 56 62 64 69 80 94 99 100 99 99 98
32 27 26 33 37 41 34 32 37 42 44 50 53 52 51 48 48 53 57 62 56 48 38 42 49 54 59 59 56 54 51 52 59 63 70 81 91 97 99 97 100 99 99 100
28 40 40 45 45 43 44 45 52 53 54 56 55 54 53 49 43 42 54 56 35 37 37 40 43 44 46 51 56 57 60 66 73 82 96 100 100 100 100 98 97 98 99 100
33 34 38 43 46 48 48 52 56 58 58 55 56 56 59 54 42 38 38 42 34 37 45 47 49 52 57 58 60 65 72 81 95 100 99 99 99 99 100 100 99 99 100 100
42 46 48 48 52 54 52 53 46 44 46 45 45 47 46 44 48 57 55 40 57 66 67 66 67 70 69 72 76 82 85 87 88 93 98 97 94 94 95 99 99 99 100 100
45 42 42 41 44 47 46 41 49 55 60 62 65 67 69 69 68 67 69 72 74 80 85 87 87 86 96 100 93 89 89 91 99 100 96 95 96 96 97 98 98 99 100 100
51 56 59 59 65 70 73 72 75 74 75 77 79 80 79 80 79 81 86 87 88 91 94 90 88 88 92 92 93 94 98 100 100 100 100 98 95 97 99 99 100 100 100 100
66 72 76 77 76 74 75 77 79 81 84 90 94 95 92 93 94 94 95 95 95 92 90 89 90 91 94 95 97 98 97 97 97 96 97 97 97 96 98 100 100 100 100 100
70 77 76 76 75 79 84 88 92 96 97 96 94 92 94 95 94 94 98 97 92 90 89 88 91 95 97 96 96 97 97 97 97 97 96 96 95 94 98 100 100 100 100 100

GFSNGP_850_rhum_177.txt.gz
RH
47 44 37 39 40 47 53 44 44 28 38 36 33 33 32 34 33 32 33 34 35 35 34 35 38 42 45 46 48 49 42 38 36 34 33 34 36 36 38 40 41 42 42 43
49 42 42 48 48 47 47 45 48 46 45 33 36 35 39 40 39 38 37 36 35 34 36 38 44 46 48 51 51 45 42 40 38 37 35 34 35 38 41 41 41 41 41 42
51 61 56 40 41 51 45 39 37 45 38 38 45 44 43 40 40 40 42 42 42 42 42 45 48 50 52 51 46 47 46 43 40 37 36 38 43 46 47 45 42 40 40 44
84 62 45 33 41 42 43 48 45 46 47 45 45 44 46 46 47 50 51 51 51 51 51 51 51 52 50 50 51 51 46 42 41 43 46 50 50 49 44 40 40 40 41 45
76 77 55 45 43 43 41 54 52 54 51 48 45 46 53 52 52 53 54 54 54 54 53 54 54 54 54 56 57 55 50 46 46 50 56 52 45 43 42 42 43 43 44 48
76 74 73 45 37 37 38 59 44 48 52 54 50 72 68 56 56 56 59 63 65 65 65 65 64 63 65 65 62 60 55 52 54 55 52 50 48 46 45 43 39 38 39 47
85 90 74 44 37 40 55 55 47 51 55 57 64 62 62 63 63 65 70 74 76 75 74 72 71 71 70 68 65 63 60 59 58 57 54 48 46 43 37 32 28 26 28 33
83 87 86 44 45 52 52 50 52 58 60 60 60 59 56 54 56 64 76 76 80 81 80 79 75 72 70 68 63 60 60 60 57 51 44 40 40 35 28 26 24 22 25 26
68 68 47 44 45 41 43 48 60 61 67 67 65 59 60 72 78 80 82 84 82 81 80 78 78 82 84 72 73 72 75 69 52 38 29 31 31 27 26 22 21 21 24 24
51 46 49 47 49 50 55 64 70 69 68 64 63 68 75 78 70 75 75 73 73 69 73 71 65 66 65 56 58 58 52 46 36 28 25 24 24 24 23 21 20 19 18 18
66 55 44 47 64 65 69 70 69 66 64 67 77 81 78 74 70 63 58 57 45 41 39 36 37 40 45 43 45 46 46 46 47 47 43 39 33 26 22 19 20 23 20 22
62 50 56 60 64 67 68 71 79 79 62 72 70 61 59 46 38 33 30 26 28 31 35 36 35 31 27 25 26 28 34 35 36 35 28 23 22 18 14 18 21 23 25 33
60 56 58 62 66 66 70 65 55 62 62 46 33 29 28 25 24 24 26 28 31 35 38 40 42 35 32 28 28 31 36 39 41 33 26 28 26 32 33 19 28 28 30 31
57 64 66 65 66 64 65 58 56 48 36 24 24 32 33 28 26 27 29 31 34 37 41 46 48 39 22 26 38 46 48 46 49 42 36 38 38 40 47 48 46 36 29 42
66 65 65 60 57 63 55 39 25 17 17 17 20 25 27 31 35 38 40 43 44 44 47 49 49 32 24 33 40 49 50 49 50 52 48 44 46 49 49 52 51 49 49 41
58 56 55 48 59 52 28 18 18 17 20 24 29 32 35 37 38 40 46 49 54 52 49 46 46 36 38 40 44 47 49 51 52 55 52 51 51 54 57 58 59 58 62 70
62 66 58 65 44 24 22 25 35 43 46 44 38 29 31 37 47 48 41 34 39 43 40 49 50 39 42 48 55 59 59 59 58 65 63 59 60 61 61 66 67 73 84 93
61 63 46 43 30 32 35 42 42 37 32 27 31 37 43 50 56 50 40 36 44 42 40 40 36 38 43 48 58 63 65 64 64 61 56 55 57 62 68 72 76 88 81 82
69 70 65 55 42 41 38 32 33 36 38 42 46 49 52 54 54 47 44 47 50 47 29 34 36 38 39 38 48 60 62 61 61 58 58 60 66 73 81 84 91 99 100 99
49 43 41 38 32 30 38 40 44 45 45 50 54 56 57 55 51 55 53 58 48 41 35 34 36 40 39 42 48 54 56 61 62 62 68 78 90 100 100 100 100 99 100 99
44 34 31 33 38 37 39 42 45 48 49 49 51 52 53 50 47 48 57 56 35 39 42 45 51 56 61 62 63 63 65 67 72 82 88 94 95 93 94 94 94 95 95 94
38 40 39 37 35 32 29 35 41 43 45 49 54 60 64 65 65 66 72 71 60 62 64 68 73 74 78 81 85 87 86 92 94 95 95 98 97 91 91 91 93 92 92 89
38 35 37 41 45 50 50 50 51 56 60 63 67 69 72 74 76 78 80 76 78 78 82 85 85 88 89 99 98 98 99 100 100 100 100 100 99 97 99 98 97 98 98 91
37 40 47 53 60 64 64 56 61 64 70 72 76 78 82 84 86 87 88 92 92 91 94 94 91 90 98 99 97 100 99 98 99 99 100 99 97 96 97 97 97 96 93 94
43 46 55 62 68 71 71 72 78 81 84 88 91 94 94 94 96 87 91 95 94 92 92 91 92 94 96 96 97 96 96 96 96 96 96 97 96 96 96 96 98 98 94 95
48 56 67 73 74 76 81 88 93 96 98 98 96 96 93 87 90 95 95 93 96 97 97 95 94 95 94 94 95 95 96 96 97 96 96 97 97 97 96 97 98 92 94 98
59 68 74 72 74 87 96 100 100 97 96 99 94 92 96 95 96 96 90 90 95 96 96 96 96 96 96 96 96 97 98 98 99 96 97 96 91 92 91 91 92 94 93 94

GFSNGP_850_rhum_183.txt.gz
RH
48 46 43 40 37 45 50 40 38 31 43 38 41 45 46 41 38 37 38 38 38 37 37 38 39 40 42 48 50 51 53 53 50 49 48 46 44 43 44 44 44 44 43 43
46 47 59 51 48 50 50 49 46 44 45 38 45 47 48 44 43 45 45 44 43 42 41 41 44 47 50 52 55 56 55 54 56 57 57 55 52 49 48 48 48 46 45 44
44 59 52 46 47 51 49 45 45 52 42 49 52 50 48 48 50 51 51 51 51 50 51 52 54 56 57 58 59 59 60 64 68 67 65 63 59 56 56 54 52 48 46 46
77 51 48 35 45 44 45 49 48 50 50 48 50 52 50 52 52 53 54 55 55 57 58 60 62 63 63 65 67 69 69 70 70 71 68 67 66 62 59 57 56 53 51 49
64 66 42 53 47 51 45 46 50 59 57 54 55 55 58 56 57 61 65 65 65 67 71 72 72 73 74 74 74 72 72 73 73 69 67 67 66 64 63 58 50 45 43 40
78 54 46 38 39 39 39 56 53 52 58 60 58 66 68 63 63 66 68 71 67 60 59 61 65 72 76 78 78 78 75 76 76 72 70 68 68 69 66 54 43 38 34 31
80 81 66 50 38 41 52 43 51 49 52 56 63 54 60 68 71 66 59 60 62 64 64 67 68 63 51 48 49 52 52 53 52 51 52 50 49 50 44 36 38 36 30 27
87 82 73 44 46 52 50 47 48 50 51 55 58 65 65 64 63 64 64 61 54 50 41 29 25 21 19 18 19 19 19 20 22 26 30 35 43 46 45 43 39 35 34 30
62 64 52 44 49 46 44 42 48 50 55 60 63 67 65 61 62 58 59 49 39 28 18 16 18 22 24 26 27 25 21 16 16 20 23 24 24 25 34 39 44 46 43 44
56 56 54 49 48 47 47 47 48 52 57 61 64 64 65 61 58 62 52 30 18 18 20 20 21 25 28 30 32 38 34 26 25 25 23 23 29 33 35 39 38 34 30 28
63 58 58 54 52 51 52 52 54 58 62 67 65 65 66 66 69 44 19 17 19 21 25 27 29 31 32 33 38 41 43 44 35 25 28 25 24 34 41 38 43 53 40 39
78 58 58 57 58 59 61 61 61 64 69 68 71 65 66 57 28 17 18 20 23 26 30 33 37 38 35 35 38 47 51 51 44 37 33 31 31 31 31 44 45 47 41 45
59 62 61 59 57 61 64 66 68 71 74 73 66 59 37 21 20 24 25 25 26 28 30 31 34 38 36 36 34 34 39 40 44 40 40 44 46 51 50 30 41 46 48 47
61 59 59 58 65 66 70 73 75 77 69 59 46 27 24 23 22 24 24 23 26 29 29 33 38 41 40 40 36 35 36 41 46 43 47 50 54 58 59 61 62 52 44 56
52 54 59 63 66 65 68 72 76 68 57 37 30 26 28 31 30 27 26 28 31 33 37 40 47 46 42 37 39 38 41 42 42 45 45 48 55 57 60 62 62 61 55 43
45 40 41 64 68 66 60 64 73 55 40 33 35 33 29 28 30 32 34 36 42 43 40 42 42 37 36 37 40 44 44 45 46 48 46 44 47 56 60 64 67 64 59 54
38 42 60 69 70 65 69 70 54 44 45 34 30 30 31 32 35 34 33 30 32 35 34 40 37 38 39 42 45 49 52 47 43 46 47 47 50 55 59 67 70 69 66 70
60 72 73 66 55 52 54 49 37 34 34 34 33 31 28 26 30 30 33 40 46 50 46 49 55 60 62 62 59 58 60 56 52 52 55 61 64 65 68 72 76 79 76 70
61 60 57 52 47 38 34 33 33 32 31 32 35 37 43 45 51 51 54 58 63 64 44 60 67 72 72 70 75 77 75 72 73 74 76 80 81 83 86 88 91 87 83 88
31 31 32 35 38 36 33 32 33 34 36 42 48 51 54 52 60 65 68 68 66 66 64 69 77 79 78 80 81 84 84 84 86 88 93 95 96 96 97 98 99 99 94 90
33 34 37 40 36 32 32 33 34 35 41 53 63 66 69 67 69 71 73 73 56 75 78 82 83 79 80 86 92 92 89 90 94 95 92 90 91 94 100 100 100 100 95 96
41 44 48 45 35 36 38 38 40 46 56 61 66 70 72 72 75 74 83 94 80 85 87 88 90 88 89 96 98 96 97 97 96 93 90 94 97 98 99 100 100 98 97 95
51 54 55 48 47 44 44 44 46 62 64 64 68 72 78 84 90 94 91 86 94 92 98 97 94 99 99 97 96 96 96 96 97 97 96 96 97 97 97 97 97 97 95 96
53 53 51 51 52 51 46 47 63 64 62 67 75 82 91 88 89 87 89 98 98 100 98 96 98 100 100 96 93 93 95 95 95 96 96 97 96 97 97 96 95 96 97 95
54 55 56 54 48 50 62 64 63 66 75 85 89 85 91 94 96 98 94 83 82 98 95 94 100 100 93 88 95 96 96 96 96 96 96 96 97 97 98 96 97 95 93 95
47 45 46 53 62 65 64 70 80 91 97 94 90 96 91 94 90 86 83 87 91 89 88 85 86 93 97 96 95 95 95 97 96 96 96 95 96 97 97 95 95 94 93 92
49 57 59 55 57 64 74 93 100 97 97 97 95 94 96 92 91 91 88 86 88 96 95 94 97 97 97 99 93 82 94 97 97 96 96 97 97 96 95 93 93 94 95 95

GFSNGP_850_rhum_189.txt.gz
RH
53 46 46 43 37 51 54 38 36 28 46 43 54 58 55 52 50 47 46 43 41 40 42 43 45 47 50 51 53 54 56 57 57 59 64 68 68 66 64 63 61 61 63 64
49 53 53 55 49 47 48 46 44 44 41 39 46 51 53 52 49 49 49 48 47 46 46 46 47 49 51 53 56 60 63 66 69 71 71 69 63 58 56 54 54 51 52 57
44 56 55 52 61 56 52 51 48 48 40 60 61 56 57 56 51 50 50 49 50 50 51 52 54 55 59 62 63 66 69 72 74 72 66 54 44 46 45 41 35 34 37 42
71 49 47 36 49 49 45 46 52 48 56 55 54 49 50 50 49 52 53 54 54 56 60 64 61 57 53 55 61 66 66 60 50 35 22 16 14 13 13 16 19 21 24 30
64 59 44 48 54 54 51 41 51 54 62 59 55 57 63 56 52 51 55 60 63 66 62 46 42 41 42 45 39 28 18 13 12 13 14 14 14 14 14 14 14 14 16 18
78 59 50 35 42 42 40 46 56 54 63 69 60 64 68 56 54 56 60 65 67 56 48 47 46 42 30 17 12 13 16 17 18 19 20 19 19 18 18 17 16 16 15 14
79 81 58 43 42 42 41 39 54 50 54 62 62 51 44 50 55 62 70 69 56 53 54 45 32 18 14 16 16 17 20 20 20 19 22 23 26 25 26 26 23 20 18 16
81 78 65 44 46 50 46 53 50 50 49 54 50 50 49 54 63 70 70 58 59 58 46 29 15 14 14 14 18 21 23 23 23 23 24 28 34 34 34 35 33 24 21 18
59 58 52 45 50 46 45 46 48 45 47 48 51 55 58 61 70 67 61 64 64 53 33 15 17 19 19 17 20 25 27 28 27 28 30 32 34 31 30 34 34 25 25 25
56 54 56 45 51 47 47 46 47 48 48 51 51 57 61 66 68 65 68 67 61 35 16 16 20 22 22 19 23 28 30 32 31 35 37 37 36 33 31 32 33 30 34 32
61 59 59 54 55 52 51 49 47 49 53 56 60 64 68 70 68 71 72 67 44 18 19 19 20 20 20 21 28 33 36 33 32 40 40 38 36 35 34 30 35 38 38 40
64 54 55 60 63 58 53 54 56 59 62 65 68 70 70 73 71 67 66 45 22 22 25 22 24 24 22 26 34 40 35 26 32 36 31 33 36 32 30 35 32 41 40 44
64 70 80 92 82 74 72 59 65 68 69 70 72 74 76 69 63 58 37 25 25 26 26 24 24 27 28 32 32 25 27 28 32 33 34 34 36 44 40 25 40 38 40 39
82 93 99 95 83 67 68 70 74 74 75 76 77 72 60 54 40 32 27 26 27 26 26 27 28 24 20 23 30 37 42 43 49 46 48 47 47 48 54 52 46 45 40 40
80 83 92 82 69 68 69 72 74 70 72 72 62 48 41 37 34 31 28 27 28 27 25 24 24 27 35 41 48 49 51 52 56 57 57 60 63 65 64 62 58 54 51 51
91 59 69 70 69 66 61 62 63 67 60 49 45 41 35 31 29 27 26 26 29 31 33 38 43 43 48 56 58 58 60 63 72 75 76 77 77 78 79 76 73 70 71 68
48 78 76 76 72 68 66 65 60 51 42 36 33 31 29 28 27 28 30 36 40 46 50 55 56 55 58 63 69 72 74 77 82 87 86 84 88 88 87 87 88 88 88 88
38 56 59 56 56 51 49 44 40 36 32 30 30 29 29 30 34 39 44 48 49 51 54 56 61 66 72 82 88 87 85 86 85 87 88 90 90 94 93 93 94 93 92 90
54 53 46 37 35 33 33 33 33 32 32 32 32 31 33 36 46 53 56 55 58 59 55 73 80 90 93 92 90 92 91 92 92 94 96 96 97 96 97 97 96 95 93 90
30 27 29 30 33 35 36 34 34 34 36 37 37 37 40 50 57 58 61 65 72 79 81 90 96 91 92 91 89 96 93 95 96 96 94 97 97 96 94 92 96 96 96 96
32 34 35 37 41 43 42 39 38 39 41 43 44 51 56 54 59 70 77 81 74 87 100 95 89 90 92 86 98 98 97 95 94 97 92 88 95 91 97 96 93 95 96 96
38 42 43 44 44 43 43 44 44 46 46 50 53 51 58 69 76 78 90 96 91 99 99 95 89 89 98 99 96 92 88 85 95 93 89 86 96 96 94 96 96 96 97 96
43 44 45 44 39 38 43 45 46 51 51 50 60 70 74 82 88 91 93 83 96 98 100 85 97 100 96 96 94 96 91 88 94 97 97 96 96 97 97 97 97 96 96 97
44 40 37 38 40 40 43 47 43 46 59 67 69 73 77 81 84 75 77 77 80 87 96 82 98 100 100 96 96 97 98 96 97 95 93 96 96 97 96 95 93 88 92 94
32 34 36 38 46 50 46 45 51 64 69 69 73 73 75 77 80 73 75 78 77 80 78 82 86 87 85 88 94 96 98 98 99 99 98 98 97 97 97 97 95 95 94 93
35 39 49 53 50 46 50 59 69 74 76 74 70 72 70 70 71 74 75 80 82 82 82 85 87 90 92 93 97 98 97 96 96 95 97 96 94 94 95 95 94 94 95 95
51 55 55 52 51 53 61 73 77 74 75 77 69 70 72 71 74 79 81 81 84 87 90 88 89 92 97 96 96 96 97 97 98 98 97 96 95 96 96 96 96 96 96 95

GFSNGP_850_rhum_192.txt.gz
RH
39 37 37 36 30 41 46 30 25 22 30 32 42 45 52 56 58 58 56 54 56 54 51 48 50 52 53 54 55 56 56 57 58 62 65 68 67 60 52 46 44 40 32 24
38 42 44 46 38 35 37 36 32 32 31 27 42 48 52 53 54 53 56 58 58 56 51 50 50 51 52 53 54 55 56 60 63 67 69 65 50 30 18 13 11 10 10 11
41 43 41 38 32 40 34 35 28 33 23 36 46 46 49 53 53 55 57 57 53 50 48 49 50 49 50 49 49 52 57 64 68 56 35 16 10 9 9 10 11 12 12 12
53 42 48 35 44 41 34 36 36 37 38 34 40 44 53 52 51 57 57 53 52 53 53 55 50 43 40 40 42 47 46 34 18 10 9 10 11 13 14 16 16 17 18 18
54 42 32 38 43 42 38 31 32 35 41 45 54 52 56 59 56 58 57 56 56 58 59 47 45 46 45 42 32 19 11 10 11 13 14 15 16 17 18 22 26 26 26 25
60 55 45 34 39 42 37 35 38 37 42 50 50 47 43 52 53 54 57 60 63 62 50 50 51 46 34 22 12 13 14 15 16 17 18 19 22 24 24 24 26 27 26 24
52 56 40 38 40 42 39 37 46 44 47 52 43 41 47 50 56 57 61 66 65 56 55 55 44 32 18 12 14 16 16 17 18 19 21 20 22 21 24 29 31 30 29 26
57 60 59 41 44 41 43 54 53 53 57 56 51 48 54 52 55 62 70 70 62 59 59 51 37 19 13 14 20 20 21 20 20 21 21 19 20 20 26 34 37 38 47 35
42 42 41 43 43 43 44 52 52 49 48 50 52 53 54 57 62 69 72 65 61 64 59 45 20 15 15 16 20 22 24 24 24 24 24 24 21 19 24 38 51 51 51 46
46 47 49 48 52 47 46 46 50 51 51 52 53 57 61 65 69 71 66 65 68 67 58 30 17 19 20 19 23 26 28 27 28 30 25 18 18 22 24 29 53 53 51 51
50 58 58 57 55 54 52 50 50 53 56 58 59 61 65 69 70 69 70 72 73 67 41 18 21 23 23 22 26 31 33 32 28 23 19 20 23 24 27 25 32 34 35 38
49 46 46 52 59 57 59 59 58 65 69 68 63 66 68 70 71 73 68 69 68 49 26 24 25 23 21 24 30 32 26 21 22 26 32 40 53 42 33 38 37 41 38 41
57 53 52 68 71 77 77 75 82 73 68 67 68 71 75 76 71 62 60 53 36 33 30 28 28 27 24 25 24 24 26 32 39 45 54 68 74 76 71 42 66 58 59 46
55 65 92 91 94 96 81 71 71 70 73 76 77 77 70 58 52 42 35 33 33 30 28 26 26 25 25 30 35 37 40 44 49 54 62 74 81 84 87 86 80 75 79 78
78 76 79 89 88 84 76 74 79 80 79 74 67 58 49 40 35 33 31 28 27 26 25 26 30 33 41 46 49 52 56 60 71 81 87 91 94 92 94 96 95 94 95 97
84 82 86 78 75 78 78 82 72 66 66 60 50 42 37 33 30 28 27 27 29 29 30 39 45 47 51 54 57 62 78 91 98 98 94 95 94 96 99 98 98 97 98 98
83 88 80 78 74 70 63 63 60 56 49 42 36 32 30 28 28 27 27 31 38 43 46 49 50 52 57 68 83 100 99 100 100 100 98 95 92 92 94 97 98 98 96 100
62 54 58 59 66 65 64 54 44 38 34 31 30 30 29 30 32 35 40 43 44 45 46 55 64 71 87 100 100 100 99 94 88 92 92 94 94 95 92 90 92 93 91 97
47 57 64 61 54 46 41 35 32 32 32 32 31 32 33 37 43 47 48 44 49 64 73 70 84 97 100 100 99 94 90 88 91 90 90 94 96 89 86 86 93 94 95 95
60 57 48 38 32 30 31 33 34 35 35 34 35 37 40 45 45 46 53 62 70 80 94 100 100 100 100 100 92 94 95 95 96 87 86 97 95 97 83 88 96 93 93 89
33 30 31 32 36 37 37 37 38 39 38 39 41 45 44 44 54 61 64 70 75 82 100 100 100 100 100 96 96 99 98 100 96 89 84 87 86 82 85 92 94 93 95 95
32 33 36 39 42 43 42 40 39 39 41 44 42 42 54 59 59 62 66 73 76 67 77 97 100 99 98 99 98 100 100 98 99 100 100 90 96 93 92 93 94 95 94 91
38 39 42 43 41 39 40 41 42 44 38 36 47 57 60 60 61 70 81 64 64 68 97 89 96 100 100 100 100 90 91 93 96 100 98 96 95 94 95 96 96 94 94 95
44 46 40 38 40 40 43 47 41 37 40 52 59 60 62 65 58 65 66 66 66 69 74 75 80 100 100 96 90 91 93 96 100 100 100 96 94 95 95 94 96 99 97 91
40 38 39 38 41 47 44 40 39 43 54 60 60 61 65 70 73 65 68 67 69 73 76 80 84 85 84 90 96 96 99 100 100 99 99 100 99 95 94 95 96 96 96 97
38 38 43 50 48 44 41 40 42 54 62 63 65 69 70 72 72 75 74 74 77 82 86 87 86 87 87 91 95 96 96 96 95 94 94 93 94 95 96 96 96 96 96 96
47 50 51 51 48 47 46 47 55 67 73 75 73 75 77 80 80 80 81 84 86 88 86 86 86 86 92 95 95 95 92 86 83 85 88 91 91 92 93 95 96 97 97 97